Starlink 34936

operational
NORAD ID: 65898 Int'l Des: 2025-224 Owner: SPXS Country: US Constellation: starlink
LEOCIRCULAR

About Starlink 34936

Description loading...

Live Position

Loading 3D Globe...

Upcoming Passes

Altitude History

Altitude vs Time

uPlot chart will show altitude changes over time

Two-Line Element Set

1 65898U 25224S 25318.83334491 -.02119516 00000-0 -66459-1 0 9993
2 65898 53.1595 184.7705 0001622 94.5666 139.1356 15.35873169 6052
Epoch: Nov 14, 2025 • Age: 7 hours

Current Status

Altitude 464.5 km
Velocity 7.64 km/s
Sub-Earth Point 35.56°N, 134°W
Launch Date Oct 7, 2025
Age 0.1 years
Type internet

Technical Details

Classification Payload
Mass 575.00 kg
Dry Mass 530.00 kg
Total Mass 575.00 kg
Length 0.30 m
Diameter 4.10 m
Span 29.00 m
Shape Box + pan
Manufacturer SPXS
Bus Type Starlink V2MO
Phase Status In Orbit
Owner/State SPXS/US

Large Constellations

Loading constellations...